STARLINK-33546, 62287

Orbit data source: Space-Track

STARLINK-33546, 62287 is a payload satellite owned by SpaceX/Seattle (US) in LEO that was launched on Sun, 08 Dec 2024 UTC via an FALCON 9 launch vehicle from the Air Force Eastern Test Range (AFETR). Payload-class satellites include a variety of spacecraft equipped with specific instruments for various scientific and technological missions. These include communications satellites like Starlink; space stations such as the ISS; scientific satellites like the Hubble; Earth observation satellites from companies like Planet Labs, Umbra, and HawkEye 360; GPS; miniature CubeSats for education and research; and military/defense satellites.

Loading next visibility...
Identifier
62287, 2024-237W
Orbit
LEO
Country
Flag of USUS
Related business
Manufacturer
SpaceX/Seattle
Mission
Operational Commercial Communications
Bus & Motor
STARLINK V2MO, Unknown motor
Mass
530 kg wet, ~500 kg dry
Launch date (UTC)
2024-12-08 (2 years ago)
Launch vehicle
FALCON 9
Launch site
Air Force Eastern Test Range (AFETR)
Object type
Payload
Rocket body
Debris
Shape & HBR
Box + 2 Pan, 17.7 m
Radar Cross Section
36.964 m², Large (>1 m²)

Expand to show TLE details & history
Last TLE update: 1 day ago

TLE from 1 day ago
0 STARLINK-33546
1 62287U 24237W   26170.66668981 -.00032621  00000-0 -11801-2 0  9998
2 62287  43.0032   0.4781 0001351 263.7814 239.5908 15.27607859  5876
Epoch: 2026-06-19T16:00Z
TLE epoch observation values (Epoch: 2026-06-19T16:00:01.999Z)
Latitude
24.10348°
Longitude
4.08336°
Altitude
483.187 km
Speed
7.628 km/s
True Right ascension
10h 07m 56s
True Declination
23° 58' 14"
Sunlit
Object was in daylight at epoch
Visualization orbit readout
Latitude
Unknown
Longitude
Unknown
Altitude
Unknown
Speed
Unknown
Apparent Right ascension
Unknown
Apparent Declination
Unknown
Sunlit
N/A
Visualization observer readout
Local Sidereal Time
07:24:16
Azimuth
Unknown
Elevation
Unknown
Doppler factor
Unknown
Orbital elements
Apogee altitude
485.838 km
Perigee altitude
483.983 km
Semi-major axis
6,863.047 km
Eccentricity
0.00014
Inclination
43.0032°
RAAN
0.4781°
Arg. of periapsis
263.7814°
True anomaly
239.57745°
Mean anomaly
239.5908°
Eccentric anomaly
239.58412°
Mean motion
3.8174 °/min
Orbital period
94.31 mins
BSTAR
-0.0011801
Loading maneuver chart data...
Computing Atmospheric mass density...
Loading historical data...
Loading historical data...
Loading historical data...
Loading historical data...
Loading historical data...
Loading historical data...
Loading historical data...

Documentation

Showing up to 5 results
|